User: anonymous   Login
Location: Unspecified
(0.0000°N, 0.0000°E)
Time: 05:03:26
(UTC+00:00)
Language:

KKS-1 - Orbit

View from above orbital plane
View from above orbital plane
View from above satellite
View from above satellite

Ground track
Ground track

The orbit data is extracted from the following two-line orbital elements,

1 33499U 09002H   18016.52673797  .00000085  00000-0  20676-4 0  9999
2 33499  98.3460 193.4268 0010241  59.7323 300.4897 14.75284860482819
Epoch (UTC): 16 January 2018 12:38:30
Eccentricity: 0.0010241
inclination: 98.3460°
perigee height: 637 km
apogee height: 651 km
right ascension of ascending node: 193.4268°
argument of perigee: 59.7323°
revolutions per day: 14.75284860
mean anomaly at epoch: 300.4897°
orbit number at epoch: 48281

The dashed part of the orbit path shows where the satellite is in the earth's shadow,  

DLR